Regional Weather Roundup
Issued by NWS Cleveland, OH

Home | Current Version | Previous Version | Graphics & Text | Print | Product List | Glossary On
Versions: 1 2 3 4 5 6 7 8 9 10 11 12 13 14 15 16 17 18 19 20 21 22 23 24 25 26 27 28 29 30 31 32 33 34 35 36 37 38 39 40 41 42 43 44 45 46 47 48 49 50
000
ASUS41 KCLE 212300
RWRCLE
OHIO REGIONAL WEATHER ROUNDUP
NATIONAL WEATHER SERVICE WILMINGTON, OH
600 PM EST TUE FEB 21 2017

NOTE: "FAIR" INDICATES FEW OR NO CLOUDS BELOW 12,000 FEET WITH NO
SIGNIFICANT WEATHER AND/OR OBSTRUCTIONS TO VISIBILITY.

OHZ001>008-015>018-024>027-034-035-043-044-220000-
   NORTHWEST OHIO

CITY           SKY/WX    TMP DP  RH WIND       PRES   REMARKS
DEFIANCE       CLOUDY    54  51  90 CALM      29.94S
FINDLAY        MOCLDY    60  47  61 S5        29.94S
TOLEDO EXPRESS CLOUDY    56  51  84 W3        29.94S
TOLEDO EXEC    CLOUDY    56  51  84 SW3       29.95S
LIMA           CLOUDY    60  49  66 S5        29.95S
$$

OHZ009>014-019>023-028>033-038-089-220000-
   NORTHEAST OHIO

CITY           SKY/WX    TMP DP  RH WIND       PRES   REMARKS
CLE-HOPKINS    CLOUDY    63  43  48 S7        29.97S
CLE-LAKEFRONT  CLOUDY    62  43  49 S8        29.93F
CUY CO. ARPT   CLOUDY    61  46  59 S8        29.94F
LORAIN-ELYRIA  MOCLDY    59  44  57 SW6       29.95S
ASHTABULA      CLOUDY    56  46  69 SE7       29.95F
AKRON-CANTON   CLOUDY    60  45  57 S6        29.98S
WOOSTER        NOT AVBL
MANSFIELD      CLOUDY    59  46  62 SW6       29.97S
YOUNGSTOWN     CLOUDY    60  44  55 SW5       29.98R
$$

OHZ042-051>053-060>062-070>072-077>081-220000-
  SOUTHWEST OHIO

CITY           SKY/WX    TMP DP  RH WIND       PRES   REMARKS
CINC-COVINGTON LGT RAIN  58  56  93 N7        29.98R FOG
CINC-LUNKEN    LGT RAIN  58  57  97 SE3       29.99R FOG
HAMILTON       LGT RAIN  56  55  97 CALM      29.99R FOG
DAYTON         NOT AVBL
WRIGHT-PAT AFB FAIR      62  50  65 SE5       29.96F
DAYTON GENERAL LGT RAIN  57  53  86 S12       29.97R
WILMINGTON     LGT RAIN  56  53  90 SW5       29.99R
$$

OHZ036-037-039>041-045>050-054>059-063>069-073>076-082>088-220000-
  CENTRAL AND SOUTHEAST OHIO

CITY           SKY/WX    TMP DP  RH WIND       PRES   REMARKS
COLUMBUS       CLOUDY    65  48  54 SW5       29.98S
OSU AIRPORT    CLOUDY    63  49  60 S8        29.97S
BOLTON FIELD   CLOUDY    61  48  63 SW6       29.99S
RICKENBACK AFB NOT AVBL
NEWARK         MOCLDY    63  47  55 S3        29.98S
MARION         CLOUDY    59  47  64 SW3       29.97S
LANCASTER      LGT RAIN  63  49  60 S6        30.00R
ZANESVILLE     CLOUDY    65  45  48 CALM      29.99R
NEW PHILLY     CLOUDY    64  46  52 S5        29.99S
$$




USA.gov is the U.S. government's official web portal to all federal, state and local government web resources and services.